Year,Month,Day,Hour,Minute,Value (Times are PST for temperature in C)
2018,07,23,00,00,19.30
2018,07,23,00,01,19.30
2018,07,23,00,02,19.20
2018,07,23,00,03,19.20
2018,07,23,00,04,19.20
2018,07,23,00,05,19.20
2018,07,23,00,06,19.20
2018,07,23,00,07,19.20
2018,07,23,00,08,19.20
2018,07,23,00,09,19.10
2018,07,23,00,10,19.10
2018,07,23,00,11,19.10
2018,07,23,00,12,19.10
2018,07,23,00,13,19.10
2018,07,23,00,14,19.10
2018,07,23,00,15,19.00
2018,07,23,00,16,19.00
2018,07,23,00,17,19.00
2018,07,23,00,18,19.00
2018,07,23,00,19,18.90
2018,07,23,00,20,18.90
2018,07,23,00,21,18.90
2018,07,23,00,22,18.90
2018,07,23,00,23,18.90
2018,07,23,00,24,18.90
2018,07,23,00,25,18.90
2018,07,23,00,26,18.90
2018,07,23,00,27,18.90
2018,07,23,00,28,18.80
2018,07,23,00,29,18.80
2018,07,23,00,30,18.80
2018,07,23,00,31,18.80
2018,07,23,00,32,18.80
2018,07,23,00,33,18.80
2018,07,23,00,34,18.70
2018,07,23,00,35,18.70
2018,07,23,00,36,18.70
2018,07,23,00,37,18.70
2018,07,23,00,38,18.60
2018,07,23,00,39,18.60
2018,07,23,00,40,18.60
2018,07,23,00,41,18.60
2018,07,23,00,42,18.60
2018,07,23,00,43,18.60
2018,07,23,00,44,18.60
2018,07,23,00,45,18.50
2018,07,23,00,46,18.50
2018,07,23,00,47,18.50
2018,07,23,00,48,18.50
2018,07,23,00,49,18.50
2018,07,23,00,50,18.50
2018,07,23,00,51,18.40
2018,07,23,00,52,18.40
2018,07,23,00,53,18.40
2018,07,23,00,54,18.40
2018,07,23,00,55,18.40
2018,07,23,00,56,18.40
2018,07,23,00,57,18.30
2018,07,23,00,58,18.30
2018,07,23,00,59,18.30
2018,07,23,01,00,18.30
2018,07,23,01,01,18.30
2018,07,23,01,02,18.20
2018,07,23,01,03,18.20
2018,07,23,01,04,18.20
2018,07,23,01,05,18.20
2018,07,23,01,06,18.20
2018,07,23,01,07,18.10
2018,07,23,01,08,18.10
2018,07,23,01,09,18.10
2018,07,23,01,10,18.10
2018,07,23,01,11,18.00
2018,07,23,01,12,18.00
2018,07,23,01,13,18.00
2018,07,23,01,14,17.90
2018,07,23,01,15,17.90
2018,07,23,01,16,17.90
2018,07,23,01,17,17.80
2018,07,23,01,18,17.80
2018,07,23,01,19,17.80
2018,07,23,01,20,17.80
2018,07,23,01,21,17.70
2018,07,23,01,22,17.70
2018,07,23,01,23,17.70
2018,07,23,01,24,17.60
2018,07,23,01,25,17.60
2018,07,23,01,26,17.60
2018,07,23,01,27,17.60
2018,07,23,01,28,17.50
2018,07,23,01,29,17.50
2018,07,23,01,30,17.50
2018,07,23,01,31,17.50
2018,07,23,01,32,17.40
2018,07,23,01,33,17.40
2018,07,23,01,34,17.40
2018,07,23,01,35,17.40
2018,07,23,01,36,17.40
2018,07,23,01,37,17.30
2018,07,23,01,38,17.30
2018,07,23,01,39,17.30
2018,07,23,01,40,17.30
2018,07,23,01,41,17.30
2018,07,23,01,42,17.20
2018,07,23,01,43,17.20
2018,07,23,01,44,17.20
2018,07,23,01,45,17.20
2018,07,23,01,46,17.20
2018,07,23,01,47,17.20
2018,07,23,01,48,17.20
2018,07,23,01,49,17.20
2018,07,23,01,50,17.20
2018,07,23,01,51,17.20
2018,07,23,01,52,17.20
2018,07,23,01,53,17.20
2018,07,23,01,54,17.10
2018,07,23,01,55,17.10
2018,07,23,01,56,17.10
2018,07,23,01,57,17.10
2018,07,23,01,58,17.10
2018,07,23,01,59,17.10
2018,07,23,02,00,17.00
2018,07,23,02,01,17.00
2018,07,23,02,02,16.90
2018,07,23,02,03,16.90
2018,07,23,02,04,16.90
2018,07,23,02,05,16.90
2018,07,23,02,06,16.90
2018,07,23,02,07,16.90
2018,07,23,02,08,16.80
2018,07,23,02,09,16.80
2018,07,23,02,10,16.80
2018,07,23,02,11,16.80
2018,07,23,02,12,16.80
2018,07,23,02,13,16.80
2018,07,23,02,14,16.80
2018,07,23,02,15,16.80
2018,07,23,02,16,16.70
2018,07,23,02,17,16.70
2018,07,23,02,18,16.70
2018,07,23,02,19,16.70
2018,07,23,02,20,16.70
2018,07,23,02,21,16.70
2018,07,23,02,22,16.60
2018,07,23,02,23,16.60
2018,07,23,02,24,16.60
2018,07,23,02,25,16.60
2018,07,23,02,26,16.50
2018,07,23,02,27,16.50
2018,07,23,02,28,16.50
2018,07,23,02,29,16.50
2018,07,23,02,30,16.40
2018,07,23,02,31,16.40
2018,07,23,02,32,16.40
2018,07,23,02,33,16.40
2018,07,23,02,34,16.40
2018,07,23,02,35,16.40
2018,07,23,02,36,16.40
2018,07,23,02,37,16.40
2018,07,23,02,38,16.40
2018,07,23,02,39,16.40
2018,07,23,02,40,16.50
2018,07,23,02,41,16.50
2018,07,23,02,42,16.50
2018,07,23,02,43,16.50
2018,07,23,02,44,16.40
2018,07,23,02,45,16.40
2018,07,23,02,46,16.40
2018,07,23,02,47,16.40
2018,07,23,02,48,16.40
2018,07,23,02,49,16.40
2018,07,23,02,50,16.40
2018,07,23,02,51,16.40
2018,07,23,02,52,16.40
2018,07,23,02,53,16.40
2018,07,23,02,54,16.40
2018,07,23,02,55,16.40
2018,07,23,02,56,16.40
2018,07,23,02,57,16.30
2018,07,23,02,58,16.30
2018,07,23,02,59,16.30
2018,07,23,03,00,16.30
2018,07,23,03,01,16.30
2018,07,23,03,02,16.30
2018,07,23,03,03,16.30
2018,07,23,03,04,16.30
2018,07,23,03,05,16.30
2018,07,23,03,06,16.30
2018,07,23,03,07,16.30
2018,07,23,03,08,16.30
2018,07,23,03,09,16.30
2018,07,23,03,10,16.20
2018,07,23,03,11,16.20
2018,07,23,03,12,16.20
2018,07,23,03,13,16.20
2018,07,23,03,14,16.20
2018,07,23,03,15,16.20
2018,07,23,03,16,16.20
2018,07,23,03,17,16.10
2018,07,23,03,18,16.10
2018,07,23,03,19,16.10
2018,07,23,03,20,16.10
2018,07,23,03,21,16.10
2018,07,23,03,22,16.10
2018,07,23,03,23,16.00
2018,07,23,03,24,16.00
2018,07,23,03,25,16.00
2018,07,23,03,26,15.90
2018,07,23,03,27,15.90
2018,07,23,03,28,15.90
2018,07,23,03,29,15.90
2018,07,23,03,30,15.80
2018,07,23,03,31,15.80
2018,07,23,03,32,15.80
2018,07,23,03,33,15.80
2018,07,23,03,34,15.80
2018,07,23,03,35,15.80
2018,07,23,03,36,15.70
2018,07,23,03,37,15.70
2018,07,23,03,38,15.70
2018,07,23,03,39,15.70
2018,07,23,03,40,15.70
2018,07,23,03,41,15.60
2018,07,23,03,42,15.60
2018,07,23,03,43,15.60
2018,07,23,03,44,15.60
2018,07,23,03,45,15.60
2018,07,23,03,46,15.50
2018,07,23,03,47,15.50
2018,07,23,03,48,15.40
2018,07,23,03,49,15.40
2018,07,23,03,50,15.40
2018,07,23,03,51,15.40
2018,07,23,03,52,15.30
2018,07,23,03,53,15.30
2018,07,23,03,54,15.30
2018,07,23,03,55,15.30
2018,07,23,03,56,15.30
2018,07,23,03,57,15.20
2018,07,23,03,58,15.20
2018,07,23,03,59,15.20
2018,07,23,04,00,15.20
2018,07,23,04,01,15.10
2018,07,23,04,02,15.10
2018,07,23,04,03,15.10
2018,07,23,05,04,14.60
2018,07,23,05,05,14.60
2018,07,23,05,06,14.60
2018,07,23,05,07,14.60
2018,07,23,05,08,14.60
2018,07,23,05,09,14.50
2018,07,23,05,10,14.50
2018,07,23,05,11,14.50
2018,07,23,05,12,14.40
2018,07,23,05,13,14.40
2018,07,23,05,14,14.40
2018,07,23,05,15,14.40
2018,07,23,05,16,14.30
2018,07,23,05,17,14.30
2018,07,23,05,18,14.30
2018,07,23,05,19,14.20
2018,07,23,05,20,14.20
2018,07,23,05,21,14.20
2018,07,23,05,22,14.20
2018,07,23,05,23,14.20
2018,07,23,05,24,14.20
2018,07,23,05,25,14.10
2018,07,23,05,26,14.10
2018,07,23,05,27,14.10
2018,07,23,05,28,14.10
2018,07,23,05,29,14.10
2018,07,23,05,30,14.00
2018,07,23,05,31,14.00
2018,07,23,05,32,14.00
2018,07,23,05,33,14.00
2018,07,23,05,34,13.90
2018,07,23,05,35,13.90
2018,07,23,05,36,13.90
2018,07,23,05,37,13.90
2018,07,23,05,38,13.80
2018,07,23,05,39,13.80
2018,07,23,05,40,13.80
2018,07,23,05,41,13.80
2018,07,23,05,42,13.80
2018,07,23,05,43,13.80
2018,07,23,05,44,13.80
2018,07,23,05,45,13.80
2018,07,23,05,46,13.80
2018,07,23,05,47,13.80
2018,07,23,05,48,13.80
2018,07,23,05,49,13.80
2018,07,23,05,50,13.80
2018,07,23,05,51,13.80
2018,07,23,05,52,13.80
2018,07,23,05,53,13.80
2018,07,23,05,54,13.80
2018,07,23,05,55,13.80
2018,07,23,05,56,13.80
2018,07,23,05,57,13.80
2018,07,23,05,58,13.80
2018,07,23,05,59,13.80
2018,07,23,06,00,13.80
2018,07,23,06,01,13.80
2018,07,23,06,02,13.80
2018,07,23,06,03,13.80
2018,07,23,06,04,13.80
2018,07,23,06,05,13.80
2018,07,23,06,06,13.80
2018,07,23,06,07,13.80
2018,07,23,06,08,13.80
2018,07,23,06,09,13.80
2018,07,23,06,10,13.80
2018,07,23,06,11,13.80
2018,07,23,06,12,13.80
2018,07,23,06,13,13.80
2018,07,23,06,14,13.80
2018,07,23,06,15,13.80
2018,07,23,06,16,13.80
2018,07,23,06,17,13.80
2018,07,23,06,18,13.80
2018,07,23,06,19,13.80
2018,07,23,06,20,13.80
2018,07,23,06,21,13.80
2018,07,23,06,22,13.70
2018,07,23,06,23,13.70
2018,07,23,06,24,13.70
2018,07,23,06,25,13.70
2018,07,23,06,26,13.70
2018,07,23,06,27,13.70
2018,07,23,06,28,13.70
2018,07,23,06,29,13.70
2018,07,23,06,30,13.70
2018,07,23,06,31,13.70
2018,07,23,06,32,13.80
2018,07,23,06,33,13.80
2018,07,23,06,34,13.80
2018,07,23,06,35,13.80
2018,07,23,06,36,13.80
2018,07,23,06,37,13.80
2018,07,23,06,38,13.80
2018,07,23,06,39,13.80
2018,07,23,06,40,13.80
2018,07,23,06,41,13.90
2018,07,23,06,42,13.90
2018,07,23,06,43,13.90
2018,07,23,06,44,13.90
2018,07,23,06,45,14.00
2018,07,23,06,46,14.00
2018,07,23,06,47,14.10
2018,07,23,06,48,14.10
2018,07,23,06,49,14.20
2018,07,23,06,50,14.20
2018,07,23,06,51,14.20
2018,07,23,06,52,14.30
2018,07,23,06,53,14.30
2018,07,23,06,54,14.40
2018,07,23,06,55,14.40
2018,07,23,06,56,14.50
2018,07,23,06,57,14.50
2018,07,23,06,58,14.50
2018,07,23,06,59,14.60
2018,07,23,07,00,14.60
2018,07,23,07,01,14.70
2018,07,23,07,02,14.70
2018,07,23,07,03,14.70
2018,07,23,07,04,14.80
2018,07,23,07,05,14.80
2018,07,23,07,06,14.90
2018,07,23,07,07,15.00
2018,07,23,07,08,15.00
2018,07,23,07,09,15.10
2018,07,23,07,10,15.20
2018,07,23,07,11,15.30
2018,07,23,07,12,15.40
2018,07,23,07,13,15.50
2018,07,23,07,14,15.60
2018,07,23,07,15,15.70
2018,07,23,07,16,15.90
2018,07,23,07,17,16.00
2018,07,23,07,18,16.20
2018,07,23,07,19,16.30
2018,07,23,07,20,16.50
2018,07,23,07,21,16.60
2018,07,23,07,22,16.70
2018,07,23,07,23,16.80
2018,07,23,07,24,16.90
2018,07,23,07,25,17.00
2018,07,23,07,26,17.10
2018,07,23,07,27,17.20
2018,07,23,07,28,17.30
2018,07,23,07,29,17.40
2018,07,23,07,30,17.60
2018,07,23,07,31,17.70
2018,07,23,07,32,17.80
2018,07,23,07,33,17.90
2018,07,23,07,34,18.00
2018,07,23,07,35,18.10
2018,07,23,07,36,18.20
2018,07,23,07,37,18.30
2018,07,23,07,38,18.30
2018,07,23,07,39,18.40
2018,07,23,07,40,18.50
2018,07,23,07,41,18.60
2018,07,23,07,42,18.70
2018,07,23,07,43,18.80
2018,07,23,07,44,18.90
2018,07,23,07,45,19.00
2018,07,23,07,46,19.10
2018,07,23,07,47,19.10
2018,07,23,07,48,19.20
2018,07,23,07,49,19.30
2018,07,23,07,50,19.40
2018,07,23,07,51,19.50
2018,07,23,07,52,19.60
2018,07,23,07,53,19.70
2018,07,23,07,54,19.70
2018,07,23,07,55,19.80
2018,07,23,07,56,19.90
2018,07,23,07,57,20.00
2018,07,23,07,58,20.00
2018,07,23,07,59,20.10
2018,07,23,08,00,20.20
2018,07,23,08,01,20.20
2018,07,23,08,02,20.30
2018,07,23,08,03,20.40
2018,07,23,08,04,20.50
2018,07,23,08,05,20.60
2018,07,23,08,06,20.70
2018,07,23,08,07,20.70
2018,07,23,08,08,20.80
2018,07,23,08,09,20.80
2018,07,23,08,10,20.90
2018,07,23,08,11,21.00
2018,07,23,08,12,21.10
2018,07,23,08,13,21.10
2018,07,23,08,14,21.20
2018,07,23,08,15,21.30
2018,07,23,08,16,21.30
2018,07,23,08,17,21.40
2018,07,23,08,18,21.50
2018,07,23,08,19,21.50
2018,07,23,08,20,21.60
2018,07,23,08,21,21.70
2018,07,23,08,22,21.80
2018,07,23,08,23,21.80
2018,07,23,08,24,21.90
2018,07,23,08,25,22.00
2018,07,23,08,26,22.10
2018,07,23,08,27,22.20
2018,07,23,08,28,22.20
2018,07,23,08,29,22.30
2018,07,23,08,30,22.30
2018,07,23,08,31,22.30
2018,07,23,08,32,22.40
2018,07,23,08,33,22.50
2018,07,23,08,34,22.50
2018,07,23,08,35,22.60
2018,07,23,08,36,22.70
2018,07,23,08,37,22.80
2018,07,23,08,38,22.90
2018,07,23,08,39,22.90
2018,07,23,08,40,23.00
2018,07,23,08,41,23.10
2018,07,23,08,42,23.20
2018,07,23,08,43,23.20
2018,07,23,08,44,23.30
2018,07,23,08,45,23.30
2018,07,23,08,46,23.40
2018,07,23,08,47,23.40
2018,07,23,08,48,23.40
2018,07,23,08,49,23.40
2018,07,23,08,50,23.50
2018,07,23,08,51,23.50
2018,07,23,08,52,23.60
2018,07,23,08,53,23.70
2018,07,23,08,54,23.80
2018,07,23,08,55,23.80
2018,07,23,08,56,23.90
2018,07,23,08,57,23.90
2018,07,23,08,58,23.90
2018,07,23,08,59,23.90
2018,07,23,09,00,23.90
2018,07,23,09,01,23.90
2018,07,23,09,02,23.90
2018,07,23,09,03,23.90
2018,07,23,09,04,23.90
2018,07,23,09,05,24.00
2018,07,23,09,06,24.10
2018,07,23,09,07,24.10
2018,07,23,09,08,24.20
2018,07,23,09,09,24.20
2018,07,23,09,10,24.30
2018,07,23,09,11,24.30
2018,07,23,09,12,24.40
2018,07,23,09,13,24.40
2018,07,23,09,14,24.40
2018,07,23,09,15,24.40
2018,07,23,09,16,24.40
2018,07,23,09,17,24.40
2018,07,23,09,18,24.40
2018,07,23,09,19,24.40
2018,07,23,09,20,24.30
2018,07,23,09,21,24.30
2018,07,23,09,22,24.30
2018,07,23,09,23,24.20
2018,07,23,09,24,24.20
2018,07,23,09,25,24.20
2018,07,23,09,26,24.20
2018,07,23,09,27,24.20
2018,07,23,09,28,24.20
2018,07,23,09,29,24.30
2018,07,23,09,30,24.30
2018,07,23,09,31,24.30
2018,07,23,09,32,24.20
2018,07,23,09,33,24.20
2018,07,23,09,34,24.20
2018,07,23,09,35,24.20
2018,07,23,09,36,24.20
2018,07,23,09,37,24.30
2018,07,23,09,38,24.30
2018,07,23,09,39,24.40
2018,07,23,09,40,24.50
2018,07,23,09,41,24.50
2018,07,23,09,42,24.50
2018,07,23,09,43,24.60
2018,07,23,09,44,24.60
2018,07,23,09,45,24.60
2018,07,23,09,46,24.60
2018,07,23,09,47,24.60
2018,07,23,09,48,24.60
2018,07,23,09,49,24.60
2018,07,23,09,50,24.60
2018,07,23,09,51,24.60
2018,07,23,09,52,24.70
2018,07,23,09,53,24.70
2018,07,23,09,54,24.70
2018,07,23,09,55,24.60
2018,07,23,09,56,24.60
2018,07,23,09,57,24.70
2018,07,23,09,58,24.70
2018,07,23,09,59,24.70
2018,07,23,10,00,24.70
2018,07,23,10,01,24.70
2018,07,23,10,02,24.60
2018,07,23,10,03,24.60
2018,07,23,10,04,24.60
2018,07,23,10,05,24.60
2018,07,23,10,06,24.60
2018,07,23,10,07,24.60
2018,07,23,10,08,24.70
2018,07,23,10,09,24.80
2018,07,23,10,10,24.90
2018,07,23,10,11,24.90
2018,07,23,10,12,25.00
2018,07,23,10,13,25.00
2018,07,23,10,14,24.90
2018,07,23,10,15,24.80
2018,07,23,10,16,24.70
2018,07,23,10,17,24.50
2018,07,23,10,18,24.30
2018,07,23,10,19,24.20
2018,07,23,10,20,24.00
2018,07,23,10,21,23.80
2018,07,23,10,22,23.70
2018,07,23,10,23,23.60
2018,07,23,10,24,23.60
2018,07,23,10,25,23.60
2018,07,23,10,26,23.50
2018,07,23,10,27,23.50
2018,07,23,10,28,23.40
2018,07,23,10,29,23.40
2018,07,23,10,30,23.30
2018,07,23,10,31,23.30
2018,07,23,10,32,23.20
2018,07,23,10,33,23.20
2018,07,23,10,34,23.10
2018,07,23,10,35,23.10
2018,07,23,10,36,23.10
2018,07,23,10,37,23.10
2018,07,23,10,38,23.10
2018,07,23,10,39,23.20
2018,07,23,10,40,23.30
2018,07,23,10,41,23.30
2018,07,23,10,42,23.30
2018,07,23,10,43,23.40
2018,07,23,10,44,23.40
2018,07,23,10,45,23.40
2018,07,23,10,46,23.40
2018,07,23,10,47,23.40
2018,07,23,10,48,23.40
2018,07,23,10,49,23.50
2018,07,23,10,50,23.50
2018,07,23,10,51,23.50
2018,07,23,10,52,23.50
2018,07,23,10,53,23.60
2018,07,23,10,54,23.60
2018,07,23,10,55,23.70
2018,07,23,10,56,23.90
2018,07,23,10,57,24.00
2018,07,23,10,58,24.20
2018,07,23,10,59,24.40
2018,07,23,11,00,24.50
2018,07,23,11,01,24.60
2018,07,23,11,02,24.60
2018,07,23,11,03,24.70
2018,07,23,11,04,24.70
2018,07,23,11,05,24.80
2018,07,23,11,06,24.90
2018,07,23,11,07,25.00
2018,07,23,11,08,24.90
2018,07,23,11,09,24.90
2018,07,23,11,10,25.00
2018,07,23,11,11,25.00
2018,07,23,11,12,25.20
2018,07,23,11,13,25.30
2018,07,23,11,14,25.50
2018,07,23,11,15,25.60
2018,07,23,11,16,25.80
2018,07,23,11,17,25.90
2018,07,23,11,18,26.10
2018,07,23,11,19,26.20
2018,07,23,11,20,26.20
2018,07,23,11,21,26.30
2018,07,23,11,22,26.30
2018,07,23,11,23,26.30
2018,07,23,11,24,26.30
2018,07,23,11,25,26.20
2018,07,23,11,26,26.10
2018,07,23,11,27,26.10
2018,07,23,11,28,26.00
2018,07,23,11,29,26.00
2018,07,23,11,30,26.00
2018,07,23,11,31,26.00
2018,07,23,11,32,26.00
2018,07,23,11,33,26.10
2018,07,23,11,34,26.20
2018,07,23,11,35,26.20
2018,07,23,11,36,26.20
2018,07,23,11,37,26.10
2018,07,23,11,38,26.10
2018,07,23,11,39,26.20
2018,07,23,11,40,26.20
2018,07,23,11,41,26.20
2018,07,23,11,42,26.30
2018,07,23,11,43,26.30
2018,07,23,11,44,26.30
2018,07,23,11,45,26.30
2018,07,23,11,46,26.40
2018,07,23,11,47,26.40
2018,07,23,11,48,26.50
2018,07,23,11,49,26.60
2018,07,23,11,50,26.60
2018,07,23,11,51,26.70
2018,07,23,11,52,26.70
2018,07,23,11,53,26.70
2018,07,23,11,54,26.70
2018,07,23,11,55,26.70
2018,07,23,11,56,26.70
2018,07,23,11,57,26.70
2018,07,23,11,58,26.70
2018,07,23,11,59,26.70
2018,07,23,12,00,26.80
2018,07,23,12,01,26.80
2018,07,23,12,02,26.80
2018,07,23,12,03,26.90
2018,07,23,12,04,26.90
2018,07,23,12,05,26.90
2018,07,23,12,06,27.00
2018,07,23,12,07,27.10
2018,07,23,12,08,27.10
2018,07,23,12,09,27.10
2018,07,23,12,10,27.10
2018,07,23,12,11,27.20
2018,07,23,12,12,27.20
2018,07,23,12,13,27.20
2018,07,23,12,14,27.30
2018,07,23,12,15,27.30
2018,07,23,12,16,27.30
2018,07,23,12,17,27.30
2018,07,23,12,18,27.30
2018,07,23,12,19,27.20
2018,07,23,12,20,27.30
2018,07,23,12,21,27.30
2018,07,23,12,22,27.30
2018,07,23,12,23,27.30
2018,07,23,12,24,27.20
2018,07,23,12,25,27.30
2018,07,23,12,26,27.30
2018,07,23,12,27,27.40
2018,07,23,12,28,27.50
2018,07,23,12,29,27.50
2018,07,23,12,30,27.40
2018,07,23,12,31,27.40
2018,07,23,12,32,27.40
2018,07,23,12,33,27.40
2018,07,23,12,34,27.50
2018,07,23,12,35,27.50
2018,07,23,12,36,27.60
2018,07,23,12,37,27.70
2018,07,23,12,38,27.80
2018,07,23,12,39,27.80
2018,07,23,12,40,27.80
2018,07,23,12,41,27.90
2018,07,23,12,42,27.90
2018,07,23,12,43,27.90
2018,07,23,12,44,27.90
2018,07,23,12,45,27.90
2018,07,23,12,46,27.90
2018,07,23,12,47,27.90
2018,07,23,12,48,28.00
2018,07,23,12,49,28.00
2018,07,23,12,50,28.10
2018,07,23,12,51,28.10
2018,07,23,12,52,28.10
2018,07,23,12,53,28.10
2018,07,23,12,54,28.10
2018,07,23,12,55,28.10
2018,07,23,12,56,28.10
2018,07,23,12,57,28.10
2018,07,23,12,58,28.10
2018,07,23,12,59,28.10
2018,07,23,13,00,28.10
2018,07,23,13,01,28.00
2018,07,23,13,02,28.00
2018,07,23,13,03,28.00
2018,07,23,13,04,28.00
2018,07,23,13,05,28.10
2018,07,23,13,06,28.10
2018,07,23,13,07,28.20
2018,07,23,13,08,28.30
2018,07,23,13,09,28.40
2018,07,23,13,10,28.40
2018,07,23,13,11,28.50
2018,07,23,13,12,28.50
2018,07,23,13,13,28.50
2018,07,23,13,14,28.50
2018,07,23,13,15,28.60
2018,07,23,13,16,28.60
2018,07,23,13,17,28.60
2018,07,23,13,18,28.70
2018,07,23,13,19,28.80
2018,07,23,13,20,28.80
2018,07,23,13,21,28.80
2018,07,23,13,22,28.80
2018,07,23,13,23,28.90
2018,07,23,13,24,28.90
2018,07,23,13,25,28.90
2018,07,23,13,26,28.90
2018,07,23,13,27,28.90
2018,07,23,13,28,28.90
2018,07,23,13,29,29.00
2018,07,23,13,30,29.00
2018,07,23,13,31,29.00
2018,07,23,13,32,29.00
2018,07,23,13,33,28.90
2018,07,23,13,34,28.90
2018,07,23,13,35,28.90
2018,07,23,13,36,28.90
2018,07,23,13,37,29.00
2018,07,23,13,38,29.00
2018,07,23,13,39,29.10
2018,07,23,13,40,29.10
2018,07,23,13,41,29.10
2018,07,23,13,42,29.20
2018,07,23,13,43,29.20
2018,07,23,13,44,29.20
2018,07,23,13,45,29.20
2018,07,23,13,46,29.10
2018,07,23,13,47,29.00
2018,07,23,13,48,29.00
2018,07,23,13,49,28.90
2018,07,23,13,50,28.80
2018,07,23,13,51,28.70
2018,07,23,13,52,28.70
2018,07,23,13,53,28.50
2018,07,23,13,54,28.40
2018,07,23,13,55,28.30
2018,07,23,13,56,28.20
2018,07,23,13,57,28.10
2018,07,23,13,58,28.10
2018,07,23,13,59,28.10
2018,07,23,14,00,28.10
2018,07,23,14,01,28.00
2018,07,23,14,02,27.90
2018,07,23,14,03,27.80
2018,07,23,14,04,27.80
2018,07,23,14,05,27.80
2018,07,23,14,06,27.80
2018,07,23,14,07,27.80
2018,07,23,14,08,27.80
2018,07,23,14,09,27.80
2018,07,23,14,10,27.90
2018,07,23,14,11,27.90
2018,07,23,14,12,27.90
2018,07,23,14,13,28.00
2018,07,23,14,14,28.00
2018,07,23,14,15,28.10
2018,07,23,14,16,28.20
2018,07,23,14,17,28.20
2018,07,23,14,18,28.30
2018,07,23,14,19,28.40
2018,07,23,14,20,28.40
2018,07,23,14,21,28.40
2018,07,23,14,22,28.40
2018,07,23,14,23,28.40
2018,07,23,14,24,28.30
2018,07,23,14,25,28.20
2018,07,23,14,26,28.20
2018,07,23,14,27,28.20
2018,07,23,14,28,28.20
2018,07,23,14,29,28.30
2018,07,23,14,30,28.30
2018,07,23,14,31,28.40
2018,07,23,14,32,28.40
2018,07,23,14,33,28.50
2018,07,23,14,34,28.50
2018,07,23,14,35,28.60
2018,07,23,14,36,28.60
2018,07,23,14,37,28.60
2018,07,23,14,38,28.60
2018,07,23,14,39,28.60
2018,07,23,14,40,28.60
2018,07,23,14,41,28.60
2018,07,23,14,42,28.60
2018,07,23,14,43,28.60
2018,07,23,14,44,28.60
2018,07,23,14,45,28.60
2018,07,23,14,46,28.60
2018,07,23,14,47,28.60
2018,07,23,14,48,28.60
2018,07,23,14,49,28.60
2018,07,23,14,50,28.60
2018,07,23,14,51,28.60
2018,07,23,14,52,28.70
2018,07,23,14,53,28.60
2018,07,23,14,54,28.60
2018,07,23,14,55,28.60
2018,07,23,14,56,28.60
2018,07,23,14,57,28.50
2018,07,23,14,58,28.50
2018,07,23,14,59,28.40
2018,07,23,15,00,28.40
2018,07,23,15,01,28.40
2018,07,23,15,02,28.40
2018,07,23,15,03,28.50
2018,07,23,15,04,28.50
2018,07,23,15,05,28.50
2018,07,23,15,06,28.60
2018,07,23,15,07,28.60
2018,07,23,15,08,28.50
2018,07,23,15,09,28.50
2018,07,23,15,10,28.50
2018,07,23,15,11,28.50
2018,07,23,15,12,28.50
2018,07,23,15,13,28.50
2018,07,23,15,14,28.60
2018,07,23,15,15,28.70
2018,07,23,15,16,28.80
2018,07,23,15,17,28.90
2018,07,23,15,18,28.90
2018,07,23,15,19,29.00
2018,07,23,15,20,29.00
2018,07,23,15,21,29.00
2018,07,23,15,22,29.00
2018,07,23,15,23,28.90
2018,07,23,15,24,28.90
2018,07,23,15,25,29.00
2018,07,23,15,26,29.00
2018,07,23,15,27,29.10
2018,07,23,15,28,29.10
2018,07,23,15,29,29.20
2018,07,23,15,30,29.20
2018,07,23,15,31,29.20
2018,07,23,15,32,29.30
2018,07,23,15,33,29.30
2018,07,23,15,34,29.30
2018,07,23,15,35,29.40
2018,07,23,15,36,29.50
2018,07,23,15,37,29.50
2018,07,23,15,38,29.50
2018,07,23,15,39,29.60
2018,07,23,15,40,29.60
2018,07,23,15,41,29.60
2018,07,23,15,42,29.60
2018,07,23,15,43,29.60
2018,07,23,15,44,29.60
2018,07,23,15,45,29.60
2018,07,23,15,46,29.60
2018,07,23,15,47,29.70
2018,07,23,15,48,29.70
2018,07,23,15,49,29.70
2018,07,23,15,50,29.70
2018,07,23,15,51,29.70
2018,07,23,15,52,29.70
2018,07,23,15,53,29.70
2018,07,23,15,54,29.70
2018,07,23,15,55,29.70
2018,07,23,15,56,29.70
2018,07,23,15,57,29.60
2018,07,23,15,58,29.70
2018,07,23,15,59,29.70
2018,07,23,16,00,29.80
2018,07,23,16,01,29.80
2018,07,23,16,02,29.80
2018,07,23,16,03,29.80
2018,07,23,16,04,29.80
2018,07,23,16,05,29.80
2018,07,23,16,06,29.80
2018,07,23,16,07,29.80
2018,07,23,16,08,29.70
2018,07,23,16,09,29.70
2018,07,23,16,10,29.60
2018,07,23,16,11,29.60
2018,07,23,16,12,29.60
2018,07,23,16,13,29.60
2018,07,23,16,14,29.60
2018,07,23,16,15,29.60
2018,07,23,16,16,29.50
2018,07,23,16,17,29.40
2018,07,23,16,18,29.40
2018,07,23,16,19,29.30
2018,07,23,16,20,29.30
2018,07,23,16,21,29.30
2018,07,23,16,22,29.30
2018,07,23,16,23,29.30
2018,07,23,16,24,29.30
2018,07,23,16,25,29.40
2018,07,23,16,26,29.40
2018,07,23,16,27,29.50
2018,07,23,16,28,29.50
2018,07,23,16,29,29.50
2018,07,23,16,30,29.50
2018,07,23,16,31,29.50
2018,07,23,16,32,29.50
2018,07,23,16,33,29.60
2018,07,23,16,34,29.60
2018,07,23,16,35,29.60
2018,07,23,16,36,29.60
2018,07,23,16,37,29.60
2018,07,23,16,38,29.70
2018,07,23,16,39,29.70
2018,07,23,16,40,29.80
2018,07,23,16,41,29.80
2018,07,23,16,42,29.80
2018,07,23,16,43,29.90
2018,07,23,16,44,29.90
2018,07,23,16,45,30.00
2018,07,23,16,46,30.00
2018,07,23,16,47,30.00
2018,07,23,16,48,30.10
2018,07,23,16,49,30.10
2018,07,23,16,50,30.10
2018,07,23,16,51,30.10
2018,07,23,16,52,30.10
2018,07,23,16,53,30.00
2018,07,23,16,54,30.00
2018,07,23,16,55,30.10
2018,07,23,16,56,30.10
2018,07,23,16,57,30.10
2018,07,23,16,58,30.10
2018,07,23,16,59,30.10
2018,07,23,17,00,30.20
2018,07,23,17,01,30.20
2018,07,23,17,02,30.30
2018,07,23,17,03,30.30
2018,07,23,17,04,30.30
2018,07,23,17,05,30.30
2018,07,23,17,06,30.30
2018,07,23,17,07,30.20
2018,07,23,17,08,30.20
2018,07,23,17,09,30.10
2018,07,23,17,10,30.00
2018,07,23,17,11,30.00
2018,07,23,17,12,30.00
2018,07,23,17,13,30.10
2018,07,23,17,14,30.10
2018,07,23,17,15,30.10
2018,07,23,17,16,30.10
2018,07,23,17,17,30.10
2018,07,23,17,18,30.20
2018,07,23,17,19,30.20
2018,07,23,17,20,30.30
2018,07,23,17,21,30.30
2018,07,23,17,22,30.30
2018,07,23,17,23,30.30
2018,07,23,17,24,30.30
2018,07,23,17,25,30.30
2018,07,23,17,26,30.20
2018,07,23,17,27,30.20
2018,07,23,17,28,30.20
2018,07,23,17,29,30.20
2018,07,23,17,30,30.10
2018,07,23,17,31,30.00
2018,07,23,17,32,29.80
2018,07,23,17,33,29.80
2018,07,23,17,34,29.70
2018,07,23,17,35,29.60
2018,07,23,17,36,29.70
2018,07,23,17,37,29.70
2018,07,23,17,38,29.70
2018,07,23,17,39,29.70
2018,07,23,17,40,29.70
2018,07,23,17,41,29.70
2018,07,23,17,42,29.70
2018,07,23,17,43,29.70
2018,07,23,17,44,29.70
2018,07,23,17,45,29.60
2018,07,23,17,46,29.50
2018,07,23,17,47,29.40
2018,07,23,17,48,29.20
2018,07,23,17,49,29.00
2018,07,23,17,50,28.90
2018,07,23,17,51,28.70
2018,07,23,17,52,28.60
2018,07,23,17,53,28.50
2018,07,23,17,54,28.40
2018,07,23,17,55,28.30
2018,07,23,17,56,28.20
2018,07,23,17,57,28.10
2018,07,23,17,58,28.00
2018,07,23,17,59,28.00
2018,07,23,18,00,28.00
2018,07,23,18,01,27.90
2018,07,23,18,02,27.90
2018,07,23,18,03,27.90
2018,07,23,18,04,27.90
2018,07,23,18,05,27.90
2018,07,23,18,06,27.90
2018,07,23,18,07,27.90
2018,07,23,18,08,27.90
2018,07,23,18,09,27.80
2018,07,23,18,10,27.80
2018,07,23,18,11,27.80
2018,07,23,18,12,27.70
2018,07,23,18,13,27.70
2018,07,23,18,14,27.70
2018,07,23,18,15,27.70
2018,07,23,18,16,27.80
2018,07,23,18,17,27.80
2018,07,23,18,18,27.90
2018,07,23,18,19,27.90